Location: Lecco
(45.8566°N, 9.3977°E)
Time: 07:48:37
(UTC+02:00)

Altair - Pass Details

Date: 20 August 2020
Orbit: 1501 x 1682 km, 47.2° (Epoch: 25 September)

Event Time Altitude Azimuth Distance (km) Brightness Sun altitude
Rises 00:49:17 0° 219° (SW) 4,881 - -31.2°
Reaches altitude 10° 00:52:35 10° 214° (SW) 3,877 - -31.3°
Maximum altitude 01:01:56 50° 143° (SE) 1,974 - -31.5°
Exits shadow 01:03:34 46° 116° (ESE) 2,051 7.8 -31.6°
Drops below altitude 10° 01:10:57 10° 73° (ENE) 3,753 9.6 -31.7°
Sets 01:14:05 0° 68° (ENE) 4,715 10.3 -31.7°
